| time (UTC) | temp C | wind direction | speed KPH | gust KPH | rain 1hr cm | rain 24hr cm | rain mn cm | humidity % | barometer mb |
| 20260507152005 | 16 | 77 | 1.6 | 4.8 | 0.00 | 0.00 | 0.00 | 60 | 1016.4 |
| 20260507151004 | 16 | 77 | 3.2 | 4.8 | 0.00 | 0.00 | 0.00 | 60 | 1016.4 |
| 20260507150504 | 16 | 77 | 0.0 | 1.6 | 0.00 | 0.00 | 0.00 | 61 | 1016.4 |
| 20260507144004 | 16 | 38 | 0.0 | 4.8 | 0.00 | 0.00 | 0.00 | 63 | 1016.4 |
| 20260507143503 | 16 | 38 | 3.2 | 8.0 | 0.00 | 0.00 | 0.00 | 63 | 1016.3 |
| 20260507143004 | 16 | 35 | 1.6 | 8.0 | 0.00 | 0.00 | 0.00 | 63 | 1016.4 |
| 20260507142504 | 16 | 33 | 1.6 | 4.8 | 0.00 | 0.00 | 0.00 | 63 | 1016.4 |
| 20260507142003 | 16 | 33 | 1.6 | 8.0 | 0.00 | 0.00 | 0.00 | 64 | 1016.4 |
| 20260507141504 | 15 | 24 | 1.6 | 8.0 | 0.00 | 0.00 | 0.00 | 64 | 1016.4 |
| 20260507141004 | 15 | 24 | 4.8 | 8.0 | 0.00 | 0.00 | 0.00 | 64 | 1016.4 |
| 20260507140503 | 15 | 24 | 4.8 | 8.0 | 0.00 | 0.00 | 0.00 | 63 | 1016.5 |
| 20260507140004 | 15 | 24 | 3.2 | 8.0 | 0.00 | 0.00 | 0.00 | 64 | 1016.5 |
| 20260507135504 | 15 | 11 | 3.2 | 4.8 | 0.00 | 0.00 | 0.00 | 65 | 1016.6 |
| 20260507135003 | 15 | 5 | 3.2 | 8.0 | 0.00 | 0.00 | 0.00 | 65 | 1016.6 |
| 20260507134504 | 15 | 22 | 3.2 | 8.0 | 0.00 | 0.00 | 0.00 | 65 | 1016.7 |
| 20260507134004 | 15 | 22 | 4.8 | 11.3 | 0.00 | 0.00 | 0.00 | 65 | 1016.7 |
| 20260507133504 | 15 | 29 | 3.2 | 8.0 | 0.00 | 0.00 | 0.00 | 65 | 1016.7 |
| 20260507133004 | 15 | 28 | 3.2 | 9.7 | 0.00 | 0.00 | 0.00 | 65 | 1016.6 |
| 20260507132003 | 15 | 32 | 4.8 | 9.7 | 0.00 | 0.00 | 0.00 | 65 | 1016.6 |
| 20260507131503 | 15 | 31 | 1.6 | 8.0 | 0.00 | 0.00 | 0.00 | 64 | 1016.6 |
| 20260507131003 | 15 | 27 | 0.0 | 8.0 | 0.00 | 0.00 | 0.00 | 65 | 1016.6 |
| 20260507130504 | 15 | 26 | 3.2 | 8.0 | 0.00 | 0.00 | 0.00 | 64 | 1016.6 |
| 20260507125004 | 15 | 32 | 4.8 | 11.3 | 0.00 | 0.00 | 0.00 | 65 | 1016.6 |
| 20260507124503 | 15 | 27 | 1.6 | 8.0 | 0.00 | 0.00 | 0.00 | 65 | 1016.6 |
| 20260507124004 | 16 | 26 | 4.8 | 9.7 | 0.00 | 0.00 | 0.00 | 64 | 1016.5 |
| 20260507123505 | 16 | 22 | 6.4 | 9.7 | 0.00 | 0.00 | 0.00 | 63 | 1016.5 |
| 20260507123004 | 16 | 32 | 3.2 | 8.0 | 0.00 | 0.00 | 0.00 | 61 | 1016.5 |
| 20260507122504 | 16 | 43 | 4.8 | 9.7 | 0.00 | 0.00 | 0.00 | 63 | 1016.4 |
| 20260507122005 | 16 | 49 | 3.2 | 9.7 | 0.00 | 0.00 | 0.00 | 63 | 1016.5 |
| 20260507121504 | 16 | 345 | 3.2 | 4.8 | 0.00 | 0.00 | 0.00 | 63 | 1016.4 |
| 20260507121004 | 16 | 344 | 3.2 | 4.8 | 0.00 | 0.00 | 0.00 | 63 | 1016.4 |
| 20260507120504 | 16 | 342 | 3.2 | 9.7 | 0.00 | 0.00 | 0.00 | 63 | 1016.3 |
| 20260507120004 | 16 | 343 | 4.8 | 11.3 | 0.00 | 0.00 | 0.00 | 61 | 1016.3 |
| 20260507115504 | 17 | 324 | 4.8 | 9.7 | 0.00 | 0.00 | 0.00 | 58 | 1016.3 |
| 20260507115004 | 17 | 39 | 3.2 | 4.8 | 0.00 | 0.00 | 0.00 | 58 | 1016.3 |
| 20260507114004 | 17 | 44 | 1.6 | 4.8 | 0.00 | 0.00 | 0.00 | 58 | 1016.3 |
| 20260507113504 | 17 | 355 | 3.2 | 8.0 | 0.00 | 0.00 | 0.00 | 58 | 1016.3 |
| 20260507113005 | 17 | 355 | 4.8 | 8.0 | 0.00 | 0.00 | 0.00 | 57 | 1016.4 |
| 20260507112503 | 17 | 26 | 4.8 | 9.7 | 0.00 | 0.00 | 0.00 | 56 | 1016.4 |
| 20260507112005 | 18 | 26 | 4.8 | 12.9 | 0.00 | 0.00 | 0.00 | 56 | 1016.4 |
| 20260507111504 | 19 | 123 | 3.2 | 4.8 | 0.00 | 0.00 | 0.00 | 54 | 1016.4 |
| 20260507110504 | 20 | 31 | 3.2 | 8.0 | 0.00 | 0.00 | 0.00 | 53 | 1016.4 |
| 20260507110004 | 20 | 89 | 4.8 | 12.9 | 0.00 | 0.00 | 0.00 | 52 | 1016.4 |
| 20260507105504 | 20 | 40 | 3.2 | 9.7 | 0.00 | 0.00 | 0.00 | 54 | 1016.4 |
| 20260507105004 | 18 | 248 | 1.6 | 8.0 | 0.00 | 0.00 | 0.00 | 55 | 1016.4 |
| 20260507104504 | 18 | 84 | 1.6 | 8.0 | 0.00 | 0.00 | 0.00 | 53 | 1016.5 |
| 20260507104004 | 19 | 71 | 0.0 | 4.8 | 0.00 | 0.00 | 0.00 | 54 | 1016.6 |
| 20260507103504 | 19 | 71 | 3.2 | 4.8 | 0.00 | 0.00 | 0.00 | 53 | 1016.6 |
| 20260507103004 | 18 | 69 | 4.8 | 12.9 | 0.00 | 0.00 | 0.00 | 54 | 1016.6 |
| 20260507102504 | 18 | 62 | 0.0 | 4.8 | 0.00 | 0.00 | 0.00 | 57 | 1016.6 |
| 20260507102006 | 17 | 57 | 1.6 | 9.7 | 0.00 | 0.00 | 0.00 | 58 | 1016.6 |
| 20260507100504 | 18 | 94 | 8.0 | 11.3 | 0.00 | 0.00 | 0.00 | 56 | 1016.5 |
| 20260507100004 | 18 | 48 | 3.2 | 8.0 | 0.00 | 0.00 | 0.00 | 58 | 1016.5 |
| 20260507094503 | 17 | 11 | 3.2 | 8.0 | 0.00 | 0.00 | 0.00 | 61 | 1016.4 |
| 20260507094005 | 17 | 63 | 1.6 | 4.8 | 0.00 | 0.00 | 0.00 | 62 | 1016.4 |
| 20260507093504 | 17 | 22 | 6.4 | 16.1 | 0.00 | 0.00 | 0.00 | 62 | 1016.5 |
| 20260507092504 | 17 | 59 | 3.2 | 4.8 | 0.00 | 0.00 | 0.00 | 64 | 1016.4 |
| 20260507092003 | 16 | 59 | 3.2 | 11.3 | 0.00 | 0.00 | 0.00 | 65 | 1016.3 |
| 20260507091504 | 16 | 38 | 6.4 | 11.3 | 0.00 | 0.00 | 0.00 | 63 | 1016.3 |
| 20260507091004 | 16 | 98 | 3.2 | 11.3 | 0.00 | 0.00 | 0.00 | 64 | 1016.4 |
| 20260507090504 | 16 | 69 | 6.4 | 9.7 | 0.00 | 0.00 | 0.00 | 64 | 1016.3 |
| 20260507090005 | 16 | 93 | 3.2 | 9.7 | 0.00 | 0.00 | 0.00 | 65 | 1016.3 |
| 20260507085503 | 16 | 51 | 1.6 | 9.7 | 0.00 | 0.00 | 0.00 | 68 | 1016.2 |
| 20260507085004 | 16 | 26 | 3.2 | 11.3 | 0.00 | 0.00 | 0.00 | 67 | 1016.2 |
| 20260507084504 | 15 | 32 | 3.2 | 8.0 | 0.00 | 0.00 | 0.00 | 67 | 1016.3 |
| 20260507084004 | 15 | 71 | 3.2 | 8.0 | 0.00 | 0.00 | 0.00 | 68 | 1016.3 |
| 20260507083503 | 15 | 23 | 0.0 | 4.8 | 0.00 | 0.00 | 0.00 | 70 | 1016.2 |
| 20260507083005 | 15 | 23 | 3.2 | 8.0 | 0.00 | 0.00 | 0.00 | 71 | 1016.2 |
| 20260507082004 | 15 | 36 | 3.2 | 8.0 | 0.00 | 0.00 | 0.00 | 68 | 1016.3 |
| 20260507081503 | 15 | 40 | 4.8 | 9.7 | 0.00 | 0.00 | 0.00 | 69 | 1016.3 |
| 20260507081004 | 15 | 42 | 3.2 | 8.0 | 0.00 | 0.00 | 0.00 | 70 | 1016.3 |
| 20260507080504 | 15 | 31 | 0.0 | 8.0 | 0.00 | 0.00 | 0.00 | 69 | 1016.1 |
| 20260507080004 | 14 | 36 | 3.2 | 8.0 | 0.00 | 0.00 | 0.00 | 70 | 1016.1 |
| 20260507075503 | 14 | 37 | 3.2 | 9.7 | 0.00 | 0.00 | 0.00 | 71 | 1016.2 |
| 20260507075004 | 14 | 37 | 3.2 | 9.7 | 0.00 | 0.00 | 0.00 | 72 | 1016.2 |
| 20260507074504 | 14 | 37 | 3.2 | 9.7 | 0.00 | 0.00 | 0.00 | 72 | 1016.2 |
| 20260507074003 | 13 | 52 | 4.8 | 9.7 | 0.00 | 0.00 | 0.00 | 73 | 1016.1 |
| 20260507073504 | 13 | 50 | 3.2 | 9.7 | 0.00 | 0.00 | 0.00 | 73 | 1016.1 |
| 20260507073004 | 13 | 56 | 3.2 | 8.0 | 0.00 | 0.00 | 0.00 | 75 | 1016.1 |
| 20260507072504 | 13 | 33 | 3.2 | 4.8 | 0.00 | 0.00 | 0.00 | 77 | 1016.0 |
| 20260507072004 | 13 | 33 | 3.2 | 8.0 | 0.00 | 0.00 | 0.00 | 78 | 1016.0 |
| 20260507071004 | 13 | 34 | 6.4 | 11.3 | 0.00 | 0.00 | 0.00 | 80 | 1015.9 |
| 20260507070504 | 13 | 40 | 3.2 | 4.8 | 0.00 | 0.00 | 0.00 | 82 | 1016.0 |
| 20260507070008 | 12 | 40 | 3.2 | 4.8 | 0.00 | 0.00 | 0.00 | 84 | 1016.0 |
| 20260507065503 | 12 | 41 | 3.2 | 8.0 | 0.00 | 0.00 | 0.00 | 86 | 1015.9 |
| 20260507065004 | 12 | 42 | 3.2 | 4.8 | 0.00 | 0.00 | 0.00 | 89 | 1016.0 |
| 20260507064504 | 11 | 40 | 3.2 | 4.8 | 0.00 | 0.00 | 0.00 | 90 | 1016.0 |
| 20260507064003 | 11 | 40 | 0.0 | 8.0 | 0.00 | 0.00 | 0.00 | 91 | 1015.9 |
| 20260507063503 | 11 | 40 | 3.2 | 4.8 | 0.00 | 0.00 | 0.00 | 92 | 1015.9 |
| 20260507063004 | 10 | 40 | 3.2 | 4.8 | 0.00 | 0.00 | 0.00 | 92 | 1015.9 |
| 20260507062504 | 10 | 40 | 3.2 | 4.8 | 0.00 | 0.00 | 0.00 | 92 | 1015.9 |
| 20260507062004 | 10 | 40 | 3.2 | 8.0 | 0.00 | 0.00 | 0.00 | 92 | 1015.8 |
| 20260507061504 | 10 | 40 | 1.6 | 4.8 | 0.00 | 0.00 | 0.00 | 92 | 1015.8 |
| 20260507061003 | 10 | 40 | 1.6 | 4.8 | 0.00 | 0.00 | 0.00 | 92 | 1015.8 |
| 20260507060004 | 10 | 40 | 1.6 | 4.8 | 0.00 | 0.00 | 0.00 | 92 | 1015.6 |
| 20260507055504 | 10 | 40 | 3.2 | 4.8 | 0.00 | 0.00 | 0.00 | 92 | 1015.6 |
| 20260507055003 | 10 | 40 | 1.6 | 4.8 | 0.00 | 0.00 | 0.00 | 92 | 1015.6 |
| 20260507054503 | 10 | 40 | 1.6 | 4.8 | 0.00 | 0.00 | 0.00 | 92 | 1015.5 |
| 20260507054003 | 10 | 40 | 1.6 | 4.8 | 0.00 | 0.00 | 0.00 | 92 | 1015.4 |
| 20260507053504 | 10 | 40 | 1.6 | 4.8 | 0.00 | 0.00 | 0.00 | 92 | 1015.5 |
| 20260507053006 | 10 | 41 | 3.2 | 8.0 | 0.00 | 0.00 | 0.00 | 92 | 1015.4 |
| 20260507052504 | 10 | 42 | 1.6 | 4.8 | 0.00 | 0.00 | 0.00 | 92 | 1015.4 |
| 20260507051004 | 10 | 42 | 3.2 | 4.8 | 0.00 | 0.00 | 0.00 | 92 | 1015.2 |
| 20260507050504 | 10 | 43 | 3.2 | 4.8 | 0.00 | 0.00 | 0.00 | 92 | 1015.0 |
| 20260507050004 | 10 | 43 | 1.6 | 4.8 | 0.00 | 0.00 | 0.00 | 92 | 1015.1 |
| 20260507044504 | 10 | 43 | 0.0 | 1.6 | 0.00 | 0.00 | 0.00 | 91 | 1014.9 |
| 20260507044004 | 10 | 43 | 0.0 | 3.2 | 0.00 | 0.00 | 0.00 | 91 | 1014.8 |
| 20260507043004 | 10 | 44 | 0.0 | 3.2 | 0.00 | 0.00 | 0.00 | 91 | 1014.8 |
| 20260507042504 | 10 | 44 | 0.0 | 3.2 | 0.00 | 0.00 | 0.00 | 91 | 1014.7 |
| 20260507041504 | 10 | 44 | 0.0 | 4.8 | 0.00 | 0.00 | 0.00 | 91 | 1014.5 |
| 20260507041004 | 10 | 44 | 1.6 | 4.8 | 0.00 | 0.00 | 0.00 | 91 | 1014.5 |
| 20260507040504 | 10 | 44 | 0.0 | 0.0 | 0.00 | 0.00 | 0.00 | 90 | 1014.5 |
| 20260507040004 | 10 | 44 | 1.6 | 4.8 | 0.00 | 0.00 | 0.00 | 91 | 1014.5 |
| 20260507035504 | 10 | 44 | 0.0 | 4.8 | 0.00 | 0.00 | 0.00 | 90 | 1014.5 |
| 20260507035003 | 10 | 44 | 1.6 | 4.8 | 0.00 | 0.00 | 0.00 | 90 | 1014.5 |
| 20260507034504 | 10 | 44 | 1.6 | 4.8 | 0.00 | 0.00 | 0.00 | 90 | 1014.4 |
| 20260507034004 | 10 | 44 | 1.6 | 4.8 | 0.00 | 0.00 | 0.00 | 90 | 1014.4 |
| 20260507033504 | 10 | 44 | 1.6 | 4.8 | 0.00 | 0.00 | 0.00 | 89 | 1014.3 |
| 20260507033004 | 10 | 44 | 1.6 | 4.8 | 0.00 | 0.00 | 0.00 | 90 | 1014.3 |
| 20260507032504 | 10 | 44 | 3.2 | 8.0 | 0.00 | 0.00 | 0.00 | 89 | 1014.3 |
| 20260507032004 | 10 | 44 | 1.6 | 8.0 | 0.00 | 0.00 | 0.00 | 89 | 1014.2 |
| 20260507031504 | 10 | 44 | 3.2 | 4.8 | 0.00 | 0.00 | 0.00 | 89 | 1014.2 |
| 20260507031004 | 10 | 44 | 1.6 | 8.0 | 0.00 | 0.00 | 0.00 | 89 | 1014.2 |
| 20260507030504 | 10 | 44 | 3.2 | 8.0 | 0.00 | 0.00 | 0.00 | 88 | 1014.2 |
| 20260507025503 | 10 | 55 | 4.8 | 11.3 | 0.00 | 0.00 | 0.00 | 88 | 1014.1 |
| 20260507025004 | 11 | 57 | 3.2 | 11.3 | 0.00 | 0.00 | 0.00 | 88 | 1014.1 |
| 20260507024504 | 11 | 59 | 3.2 | 8.0 | 0.00 | 0.00 | 0.00 | 88 | 1014.1 |
| 20260507024004 | 11 | 60 | 3.2 | 8.0 | 0.00 | 0.00 | 0.00 | 88 | 1014.1 |
| 20260507023003 | 11 | 75 | 1.6 | 4.8 | 0.00 | 0.00 | 0.00 | 88 | 1014.1 |
| 20260507022504 | 11 | 75 | 1.6 | 4.8 | 0.00 | 0.00 | 0.00 | 88 | 1014.0 |
| 20260507022003 | 11 | 75 | 1.6 | 4.8 | 0.00 | 0.00 | 0.00 | 87 | 1014.0 |
| 20260507021503 | 11 | 82 | 0.0 | 3.2 | 0.00 | 0.00 | 0.00 | 87 | 1014.0 |
| 20260507021003 | 11 | 82 | 0.0 | 4.8 | 0.00 | 0.00 | 0.00 | 87 | 1014.0 |
| 20260507020503 | 11 | 82 | 0.0 | 4.8 | 0.00 | 0.00 | 0.00 | 87 | 1013.9 |
| 20260507020004 | 11 | 82 | 0.0 | 1.6 | 0.00 | 0.00 | 0.00 | 87 | 1013.8 |
| 20260507015504 | 11 | 82 | 0.0 | 3.2 | 0.00 | 0.00 | 0.00 | 87 | 1013.8 |
| 20260507015004 | 11 | 82 | 0.0 | 4.8 | 0.00 | 0.00 | 0.00 | 87 | 1013.7 |
| 20260507014504 | 11 | 82 | 0.0 | 3.2 | 0.00 | 0.00 | 0.00 | 87 | 1013.7 |
| 20260507013503 | 11 | 82 | 0.0 | 0.0 | 0.00 | 0.00 | 0.00 | 86 | 1013.8 |
| 20260507013004 | 11 | 82 | 0.0 | 0.0 | 0.00 | 0.00 | 0.00 | 85 | 1013.7 |
| 20260507012004 | 11 | 82 | 0.0 | 0.0 | 0.00 | 0.00 | 0.00 | 85 | 1013.8 |
| 20260507011004 | 11 | 82 | 0.0 | 1.6 | 0.00 | 0.00 | 0.00 | 85 | 1013.8 |
| 20260507010504 | 11 | 82 | 0.0 | 1.6 | 0.00 | 0.00 | 0.00 | 85 | 1013.8 |
| 20260507010004 | 11 | 82 | 0.0 | 4.8 | 0.00 | 0.00 | 0.00 | 84 | 1013.8 |
| 20260507005504 | 11 | 82 | 0.0 | 3.2 | 0.00 | 0.00 | 0.00 | 84 | 1013.7 |
| 20260507004504 | 11 | 82 | 0.0 | 0.0 | 0.00 | 0.00 | 0.00 | 84 | 1013.7 |
| 20260507004004 | 11 | 82 | 0.0 | 0.0 | 0.00 | 0.00 | 0.00 | 84 | 1013.7 |
| 20260507003504 | 11 | 82 | 0.0 | 0.0 | 0.00 | 0.00 | 0.00 | 84 | 1013.7 |
| 20260507003004 | 11 | 82 | 0.0 | 0.0 | 0.00 | 0.00 | 0.00 | 84 | 1013.7 |
| 20260507002504 | 11 | 82 | 0.0 | 0.0 | 0.00 | 0.00 | 0.00 | 84 | 1013.6 |
| 20260507002003 | 11 | 82 | 0.0 | 0.0 | 0.00 | 0.00 | 0.00 | 84 | 1013.6 |
| 20260507001504 | 11 | 82 | 0.0 | 0.0 | 0.00 | 0.00 | 0.00 | 84 | 1013.5 |
| 20260507001004 | 11 | 82 | 0.0 | 0.0 | 0.00 | 0.00 | 0.00 | 84 | 1013.5 |
| 20260507000504 | 11 | 82 | 0.0 | 0.0 | 0.00 | 0.00 | 0.00 | 84 | 1013.5 |
| 20260507000005 | 11 | 82 | 0.0 | 0.0 | 0.00 | 0.00 | 0.00 | 84 | 1013.6 |
| 20260506235504 | 11 | 82 | 0.0 | 0.0 | 0.00 | 0.00 | 0.00 | 84 | 1013.5 |
| 20260506235004 | 11 | 82 | 0.0 | 0.0 | 0.00 | 0.00 | 0.00 | 83 | 1013.5 |
| 20260506233504 | 11 | 82 | 0.0 | 0.0 | 0.00 | 0.00 | 0.00 | 83 | 1013.4 |
| 20260506233004 | 11 | 82 | 0.0 | 1.6 | 0.00 | 0.00 | 0.00 | 82 | 1013.4 |
| 20260506232004 | 11 | 82 | 0.0 | 4.8 | 0.00 | 0.00 | 0.00 | 82 | 1013.3 |
| 20260506231505 | 11 | 82 | 0.0 | 1.6 | 0.00 | 0.00 | 0.00 | 81 | 1013.3 |
| 20260506231003 | 11 | 82 | 0.0 | 0.0 | 0.00 | 0.00 | 0.00 | 81 | 1013.3 |
| 20260506230504 | 11 | 82 | 0.0 | 1.6 | 0.00 | 0.00 | 0.00 | 81 | 1013.2 |
| 20260506230004 | 11 | 82 | 0.0 | 4.8 | 0.00 | 0.00 | 0.00 | 81 | 1013.2 |
| 20260506224504 | 11 | 82 | 0.0 | 3.2 | 0.00 | 0.00 | 0.00 | 81 | 1013.1 |
| 20260506224003 | 11 | 82 | 0.0 | 1.6 | 0.00 | 0.00 | 0.00 | 81 | 1013.1 |
| 20260506223504 | 11 | 82 | 0.0 | 4.8 | 0.00 | 0.00 | 0.00 | 80 | 1013.1 |
| 20260506223004 | 11 | 82 | 1.6 | 4.8 | 0.00 | 0.00 | 0.00 | 80 | 1013.1 |
| 20260506222504 | 11 | 82 | 1.6 | 3.2 | 0.00 | 0.00 | 0.00 | 80 | 1013.1 |
| 20260506222004 | 12 | 82 | 0.0 | 1.6 | 0.00 | 0.00 | 0.00 | 79 | 1013.0 |
| 20260506221504 | 12 | 82 | 0.0 | 3.2 | 0.00 | 0.00 | 0.00 | 79 | 1013.0 |
| 20260506221003 | 12 | 82 | 0.0 | 4.8 | 0.00 | 0.00 | 0.00 | 78 | 1013.0 |
| 20260506220504 | 12 | 82 | 3.2 | 4.8 | 0.00 | 0.00 | 0.00 | 78 | 1013.1 |
| 20260506220004 | 12 | 83 | 0.0 | 3.2 | 0.00 | 0.00 | 0.00 | 78 | 1013.1 |
| 20260506215004 | 12 | 83 | 0.0 | 1.6 | 0.00 | 0.00 | 0.00 | 77 | 1013.1 |
| 20260506214504 | 12 | 83 | 0.0 | 3.2 | 0.00 | 0.00 | 0.00 | 77 | 1013.0 |
| 20260506214004 | 12 | 83 | 0.0 | 3.2 | 0.00 | 0.00 | 0.00 | 77 | 1012.9 |
| 20260506213504 | 12 | 83 | 1.6 | 3.2 | 0.00 | 0.00 | 0.00 | 77 | 1012.9 |
| 20260506213004 | 12 | 83 | 1.6 | 3.2 | 0.00 | 0.00 | 0.00 | 77 | 1012.8 |
| 20260506212504 | 12 | 83 | 0.0 | 3.2 | 0.00 | 0.00 | 0.00 | 76 | 1012.8 |
| 20260506212004 | 12 | 83 | 1.6 | 3.2 | 0.00 | 0.00 | 0.00 | 76 | 1012.7 |
| 20260506211504 | 12 | 83 | 0.0 | 1.6 | 0.00 | 0.00 | 0.00 | 76 | 1012.6 |
| 20260506211004 | 12 | 83 | 1.6 | 3.2 | 0.00 | 0.00 | 0.00 | 76 | 1012.6 |
| 20260506210004 | 12 | 83 | 0.0 | 0.0 | 0.00 | 0.00 | 0.00 | 76 | 1012.6 |
| 20260506205505 | 12 | 83 | 0.0 | 1.6 | 0.00 | 0.00 | 0.00 | 75 | 1012.6 |
| 20260506205004 | 12 | 83 | 0.0 | 4.8 | 0.00 | 0.00 | 0.00 | 75 | 1012.6 |
| 20260506204503 | 12 | 83 | 0.0 | 1.6 | 0.00 | 0.00 | 0.00 | 75 | 1012.4 |
| 20260506204004 | 12 | 83 | 1.6 | 9.7 | 0.00 | 0.00 | 0.00 | 74 | 1012.4 |
| 20260506203504 | 12 | 83 | 3.2 | 9.7 | 0.00 | 0.00 | 0.00 | 74 | 1012.3 |
| 20260506202503 | 12 | 85 | 1.6 | 9.7 | 0.00 | 0.00 | 0.00 | 74 | 1012.2 |
| 20260506202003 | 12 | 88 | 3.2 | 9.7 | 0.00 | 0.00 | 0.00 | 74 | 1012.3 |
| 20260506201503 | 12 | 84 | 6.4 | 12.9 | 0.00 | 0.00 | 0.00 | 74 | 1012.2 |
| 20260506200504 | 12 | 94 | 8.0 | 12.9 | 0.00 | 0.00 | 0.00 | 73 | 1012.2 |
| 20260506200005 | 12 | 61 | 3.2 | 11.3 | 0.00 | 0.00 | 0.00 | 73 | 1012.2 |
| 20260506195503 | 12 | 77 | 3.2 | 11.3 | 0.00 | 0.00 | 0.00 | 73 | 1012.1 |
| 20260506195004 | 12 | 61 | 6.4 | 16.1 | 0.00 | 0.00 | 0.00 | 73 | 1012.0 |
| 20260506194504 | 12 | 75 | 6.4 | 12.9 | 0.00 | 0.00 | 0.00 | 72 | 1011.9 |
| 20260506194004 | 12 | 74 | 4.8 | 11.3 | 0.00 | 0.00 | 0.00 | 73 | 1011.9 |
| 20260506193504 | 12 | 72 | 4.8 | 14.5 | 0.00 | 0.00 | 0.00 | 72 | 1011.9 |
| 20260506192004 | 12 | 92 | 1.6 | 12.9 | 0.00 | 0.00 | 0.00 | 73 | 1011.8 |
| 20260506191506 | 12 | 100 | 3.2 | 9.7 | 0.00 | 0.00 | 0.00 | 73 | 1011.7 |
| 20260506191003 | 12 | 80 | 4.8 | 14.5 | 0.00 | 0.00 | 0.00 | 73 | 1011.7 |
| 20260506190504 | 12 | 63 | 3.2 | 14.5 | 0.00 | 0.00 | 0.00 | 73 | 1011.7 |
| 20260506190005 | 12 | 70 | 4.8 | 11.3 | 0.00 | 0.00 | 0.00 | 73 | 1011.6 |
| 20260506185004 | 12 | 63 | 4.8 | 12.9 | 0.00 | 0.00 | 0.00 | 72 | 1011.5 |
| 20260506184504 | 12 | 48 | 6.4 | 16.1 | 0.00 | 0.00 | 0.00 | 71 | 1011.4 |
| 20260506183504 | 13 | 52 | 8.0 | 14.5 | 0.00 | 0.00 | 0.00 | 69 | 1011.4 |
| 20260506183006 | 13 | 49 | 8.0 | 16.1 | 0.00 | 0.00 | 0.00 | 69 | 1011.3 |
| 20260506182004 | 13 | 44 | 8.0 | 16.1 | 0.00 | 0.00 | 0.00 | 68 | 1011.1 |
| 20260506181504 | 13 | 61 | 8.0 | 16.1 | 0.00 | 0.00 | 0.00 | 68 | 1011.0 |
| 20260506181003 | 13 | 65 | 9.7 | 16.1 | 0.00 | 0.00 | 0.00 | 67 | 1011.0 |
| 20260506180504 | 13 | 52 | 3.2 | 11.3 | 0.00 | 0.00 | 0.00 | 68 | 1010.9 |
| 20260506180005 | 13 | 43 | 4.8 | 12.9 | 0.00 | 0.00 | 0.00 | 67 | 1010.8 |
| 20260506175504 | 13 | 52 | 4.8 | 14.5 | 0.00 | 0.00 | 0.00 | 67 | 1010.7 |
| 20260506175004 | 13 | 68 | 4.8 | 11.3 | 0.00 | 0.00 | 0.00 | 67 | 1010.7 |
| 20260506174504 | 13 | 48 | 4.8 | 12.9 | 0.00 | 0.00 | 0.00 | 66 | 1010.6 |
| 20260506173505 | 14 | 45 | 6.4 | 16.1 | 0.00 | 0.00 | 0.00 | 65 | 1010.5 |
| 20260506173004 | 14 | 60 | 4.8 | 12.9 | 0.00 | 0.00 | 0.00 | 65 | 1010.5 |
| 20260506172504 | 14 | 48 | 6.4 | 12.9 | 0.00 | 0.00 | 0.00 | 65 | 1010.4 |
| 20260506172004 | 14 | 54 | 4.8 | 12.9 | 0.00 | 0.00 | 0.00 | 65 | 1010.4 |
| 20260506170004 | 14 | 38 | 4.8 | 11.3 | 0.00 | 0.00 | 0.00 | 66 | 1010.3 |
| 20260506165504 | 14 | 53 | 4.8 | 12.9 | 0.00 | 0.00 | 0.00 | 66 | 1010.2 |
| 20260506165004 | 14 | 61 | 8.0 | 12.9 | 0.00 | 0.00 | 0.00 | 67 | 1010.1 |
| 20260506163504 | 14 | 29 | 3.2 | 12.9 | 0.00 | 0.00 | 0.00 | 69 | 1010.0 |
| 20260506162503 | 15 | 346 | 6.4 | 12.9 | 0.00 | 0.00 | 0.00 | 70 | 1010.0 |
| 20260506162004 | 15 | 351 | 6.4 | 12.9 | 0.00 | 0.00 | 0.00 | 69 | 1010.0 |
| 20260506161504 | 15 | 29 | 6.4 | 12.9 | 0.00 | 0.00 | 0.00 | 68 | 1009.9 |
| 20260506161004 | 15 | 11 | 4.8 | 11.3 | 0.00 | 0.00 | 0.00 | 68 | 1009.9 |
| 20260506160003 | 16 | 324 | 9.7 | 14.5 | 0.00 | 0.00 | 0.00 | 66 | 1009.9 |
| 20260506155504 | 15 | 16 | 9.7 | 14.5 | 0.00 | 0.00 | 0.00 | 66 | 1010.0 |
| 20260506154504 | 15 | 4 | 8.0 | 16.1 | 0.00 | 0.00 | 0.00 | 66 | 1010.0 |
| 20260506153504 | 15 | 326 | 6.4 | 12.9 | 0.00 | 0.00 | 0.00 | 69 | 1010.0 |
| 20260506153005 | 15 | 349 | 6.4 | 14.5 | 0.00 | 0.00 | 0.00 | 69 | 1010.0 |
| 20260506152504 | 14 | 329 | 4.8 | 12.9 | 0.00 | 0.00 | 0.00 | 70 | 1010.1 |